Wind_Speed
37 39 40 40 41 44 46 48 49 49 50 50 50 49 48 49 48 47 47 47 47 46 45 44 44 43 42 40 39 39 38 37 35 35 34 34 34 33 33 33 32 31 31 30
36 39 38 38 40 41 45 47 47 48 48 49 49 49 49 49 48 47 47 46 46 46 46 45 44 44 43 41 41 40 39 38 36 35 35 35 35 35 34 33 32 32 32 31
33 36 37 38 39 40 42 44 45 46 47 48 48 49 49 49 49 48 47 46 46 45 45 45 45 44 43 42 41 41 40 38 38 37 37 37 36 36 36 35 34 33 33 32
31 34 37 38 39 39 39 41 43 44 46 48 49 49 48 48 48 48 47 47 45 44 44 43 43 44 43 42 42 42 41 40 39 38 38 37 37 36 36 35 35 34 34 33
30 33 35 36 37 38 38 38 39 42 45 47 47 49 49 48 48 47 47 46 45 44 43 43 43 43 43 43 43 42 42 41 40 40 39 38 37 37 36 36 35 35 34 34
27 31 33 34 36 37 37 37 37 39 42 46 46 48 48 47 45 45 45 45 44 44 44 44 44 44 44 44 44 43 42 41 41 41 40 39 38 38 37 36 36 36 35 35
26 29 32 34 35 37 38 38 37 39 41 44 44 45 46 44 44 44 44 44 44 44 44 43 43 43 43 43 44 43 43 42 42 41 41 40 39 39 38 38 37 37 37 36
26 27 30 32 34 36 38 39 39 40 42 43 43 44 44 43 42 42 43 44 44 44 44 43 43 42 43 43 43 43 43 43 42 42 41 40 40 39 39 39 38 38 38 38
24 26 28 30 31 34 35 37 37 37 40 41 43 43 43 42 41 41 42 43 44 44 43 43 43 42 42 42 42 43 43 43 42 42 42 41 41 40 40 40 39 39 39 39
23 25 28 30 30 32 33 34 35 35 37 40 41 42 41 40 39 40 41 42 42 42 42 42 42 42 41 41 42 42 42 42 43 43 43 42 42 42 41 41 40 40 40 40
22 25 27 30 31 31 33 33 34 34 36 38 40 41 40 38 38 38 39 40 40 41 41 41 41 41 41 41 42 41 41 42 42 43 43 43 43 43 43 42 42 42 42 41
21 24 25 28 30 31 32 34 35 33 34 36 38 38 38 38 37 37 37 38 38 39 39 39 39 40 41 41 42 41 41 42 42 42 43 44 44 43 43 43 43 43 42 42
20 22 23 26 30 32 32 32 34 34 33 35 38 39 38 37 36 35 36 37 38 38 38 38 38 39 40 41 41 41 41 41 42 42 43 43 44 44 43 43 43 43 42 42
19 21 23 25 28 30 31 31 32 33 33 34 36 37 38 37 35 35 35 35 37 38 38 38 38 38 38 39 39 40 40 41 41 42 43 43 43 44 44 44 44 43 43 43
20 21 23 24 26 28 30 31 30 30 31 32 32 33 35 37 37 36 34 35 36 38 39 38 38 38 38 39 39 39 39 40 41 41 41 42 42 43 43 44 44 44 44 44
18 20 22 24 27 28 28 29 29 29 31 32 31 31 32 33 35 36 36 36 37 37 38 38 39 38 39 39 39 39 39 40 40 41 41 41 41 42 42 42 43 44 45 45
16 17 20 23 27 29 29 27 26 27 30 31 31 30 31 32 33 34 35 37 37 37 37 38 38 37 37 38 39 39 39 39 39 40 40 41 41 41 41 42 43 43 44 44
16 17 19 21 25 28 29 29 27 27 29 29 30 30 31 33 33 33 34 35 36 37 37 37 37 37 37 37 38 38 39 40 39 39 39 40 40 40 41 41 42 43 43 43
16 17 18 20 24 25 27 27 27 27 27 29 30 29 31 32 33 33 33 33 34 34 35 36 36 37 37 38 37 37 38 39 39 38 39 39 39 40 40 41 41 42 42 42
16 18 19 21 23 24 24 26 27 27 27 27 29 30 30 31 32 31 32 32 32 33 34 35 35 36 37 37 37 37 38 38 38 38 38 39 39 39 40 41 41 41 41 42
16 17 17 19 20 22 24 26 27 28 27 27 28 29 30 31 31 31 32 33 34 34 34 34 34 35 36 37 37 38 38 38 37 38 38 39 39 40 40 41 40 40 40 41
15 16 18 18 19 20 22 24 25 26 27 28 29 29 30 31 31 31 31 32 33 34 34 34 34 34 34 35 36 37 37 37 37 37 38 39 39 39 40 40 39 39 39 39
16 17 18 20 20 20 21 22 23 25 26 27 29 30 30 31 31 31 31 31 32 33 34 34 34 34 34 34 33 35 36 37 38 38 38 38 38 38 39 39 39 38 38 38
18 19 19 20 20 21 22 22 22 23 24 26 28 28 30 31 31 32 31 31 31 32 33 33 34 34 34 34 33 34 34 35 37 38 38 38 38 39 39 39 38 38 38 39
17 19 20 21 22 23 23 23 23 23 24 24 25 27 28 30 30 31 32 32 32 33 33 33 33 33 34 34 34 34 34 34 34 35 36 37 37 37 37 37 37 37 37 37
17 18 20 21 23 23 23 24 24 24 24 25 25 25 26 28 29 30 31 32 32 32 32 32 33 33 34 34 34 34 34 34 34 34 34 35 36 36 36 36 36 36 37 37
Wind_Direction
222 222 222 223 225 224 223 223 223 224 224 225 226 226 225 225 226 227 227 227 227 228 229 230 231 233 234 236 238 240 241 243 243 245 247 249 252 255 257 259 260 262 264 266
222 221 221 221 222 223 222 221 221 223 225 226 226 226 226 225 226 227 226 226 227 228 228 229 231 232 234 236 238 240 241 242 243 245 247 249 252 255 257 259 261 263 264 266
223 220 219 219 219 220 220 220 221 222 223 225 226 226 225 225 225 226 227 226 227 227 228 229 230 232 234 236 238 239 240 242 243 245 247 249 252 255 257 259 260 262 264 265
222 218 219 218 217 218 219 219 220 222 223 224 226 226 225 225 226 226 227 227 227 228 229 229 230 232 234 235 237 238 240 241 243 245 247 249 251 254 256 257 259 261 263 265
220 217 217 217 216 216 217 218 220 222 223 225 226 228 226 225 225 226 227 228 228 229 230 230 231 233 234 235 236 237 239 240 242 244 246 248 251 253 254 256 259 260 262 264
219 217 215 214 214 214 215 217 220 222 223 225 225 229 227 226 226 227 228 229 230 230 231 231 231 232 233 235 236 237 238 240 242 244 246 248 249 251 254 255 258 260 262 265
215 216 214 213 213 212 213 214 217 221 223 226 224 228 227 226 226 227 227 229 231 231 231 231 232 232 234 235 237 237 238 240 242 245 246 247 249 251 253 255 257 259 262 265
216 215 215 214 216 214 215 216 218 223 225 226 226 228 228 227 227 227 227 228 230 231 232 232 232 233 235 237 238 239 240 241 243 244 246 248 249 251 253 255 257 259 262 264
218 217 216 216 216 216 217 216 218 223 226 227 227 228 228 228 228 228 228 229 230 231 232 233 234 234 236 237 239 240 241 242 243 244 246 247 249 251 253 255 257 259 262 264
221 218 217 216 215 216 216 217 218 221 225 228 228 228 228 228 229 229 229 230 231 232 232 233 234 235 236 237 239 241 242 242 243 243 245 247 249 251 253 254 257 259 261 264
225 222 219 219 217 217 216 216 219 222 226 227 228 228 228 230 230 230 230 230 231 231 232 233 234 235 236 238 239 241 242 243 244 244 245 247 249 251 253 254 257 258 261 264
227 225 223 222 221 220 221 220 220 222 227 228 229 228 228 228 229 230 230 230 230 231 232 233 233 235 237 238 240 241 242 244 245 246 247 248 249 251 253 255 257 259 261 264
227 225 225 224 223 222 222 223 223 224 229 230 230 230 228 229 230 231 231 230 230 231 231 232 234 235 237 238 240 241 243 244 246 247 248 248 250 251 253 254 256 259 261 264
231 230 227 227 226 226 224 223 224 226 230 231 232 233 232 231 231 232 233 233 232 231 231 232 233 235 236 237 239 241 242 244 246 247 248 249 250 252 253 254 256 259 261 264
237 235 230 228 228 227 225 223 224 226 228 230 231 233 233 234 233 233 233 233 233 232 232 233 233 234 236 238 239 241 244 245 246 247 248 249 250 252 254 256 257 259 262 265
239 236 232 230 228 226 226 224 224 225 226 228 231 232 231 232 232 232 233 233 233 233 233 233 234 235 238 239 241 242 245 246 248 249 249 250 251 253 255 256 259 261 263 265
239 238 236 233 228 228 227 225 228 228 228 230 232 234 232 232 232 232 233 233 233 234 234 234 235 237 239 241 242 243 244 247 248 249 250 251 253 254 256 257 259 261 264 266
242 241 239 236 232 231 230 229 230 231 229 231 233 234 233 232 232 232 233 234 235 235 235 236 236 237 239 241 243 244 245 246 247 249 250 252 254 255 257 258 260 262 265 267
250 247 244 241 238 236 232 231 231 232 233 232 231 231 232 231 230 231 232 234 234 235 235 236 237 237 238 240 243 244 245 246 248 249 250 252 254 256 257 259 261 263 264 265
258 253 249 246 243 240 238 237 237 237 236 234 234 234 234 233 233 232 233 234 234 235 235 237 238 238 239 241 243 244 245 245 247 249 251 252 254 256 257 258 260 262 264 266
262 257 253 248 244 242 239 239 239 239 239 238 237 237 236 234 233 233 234 235 235 235 236 238 240 240 241 242 244 245 245 247 248 249 251 252 255 258 258 259 260 262 264 266
262 257 253 249 246 245 241 242 242 242 241 242 242 240 238 236 234 234 234 236 236 236 237 239 241 242 243 245 246 246 247 249 249 251 253 254 256 258 259 260 261 262 264 266
262 257 253 251 250 247 246 247 246 244 242 242 242 242 241 238 237 236 236 237 236 237 238 240 242 243 245 246 247 247 247 250 251 253 255 255 256 258 260 261 262 263 264 266
266 257 255 252 248 248 248 249 247 246 244 242 242 244 242 240 239 237 237 237 237 237 239 240 241 243 244 245 246 246 248 250 252 254 255 256 257 258 260 262 264 265 266 267
273 261 255 252 250 250 248 248 248 248 245 243 242 243 241 239 238 238 237 237 238 238 238 239 240 242 243 244 245 246 248 251 252 254 255 256 257 260 261 263 265 266 267 269
276 267 259 255 253 253 250 249 249 248 245 244 244 244 241 239 238 239 238 238 239 239 239 240 240 241 243 245 246 248 250 252 252 254 255 256 258 259 261 263 265 268 269 269
Height
5616 5623 5629 5638 5645 5653 5659 5666 5673 5680 5686 5692 5698 5705 5711 5717 5722 5729 5735 5741 5747 5753 5758 5762 5767 5771 5776 5780 5784 5787 5791 5794 5797 5800 5802 5804 5806 5807 5809 5810 5811 5812 5812 5812
5609 5616 5626 5631 5636 5642 5649 5656 5664 5671 5677 5683 5689 5695 5702 5708 5714 5721 5727 5733 5738 5744 5749 5754 5758 5763 5768 5772 5776 5780 5783 5786 5790 5792 5795 5797 5798 5800 5802 5803 5804 5805 5805 5805
5603 5612 5616 5622 5628 5634 5641 5649 5657 5663 5669 5673 5680 5685 5692 5699 5705 5712 5718 5724 5730 5735 5741 5746 5750 5755 5760 5764 5768 5772 5775 5778 5782 5785 5787 5789 5791 5793 5794 5796 5797 5797 5798 5798
5596 5603 5608 5614 5620 5627 5635 5642 5649 5654 5659 5664 5671 5676 5684 5691 5697 5704 5710 5716 5722 5728 5733 5737 5742 5747 5751 5755 5759 5763 5767 5770 5773 5776 5779 5781 5784 5786 5787 5788 5789 5790 5790 5791
5590 5596 5601 5608 5616 5622 5629 5635 5641 5646 5651 5657 5662 5668 5676 5682 5689 5697 5703 5709 5715 5720 5725 5729 5734 5738 5742 5747 5751 5754 5758 5761 5765 5768 5771 5773 5776 5778 5779 5780 5782 5783 5783 5783
5586 5591 5596 5603 5610 5616 5622 5628 5633 5637 5641 5647 5654 5659 5667 5674 5683 5690 5696 5701 5706 5711 5716 5721 5725 5729 5733 5738 5742 5745 5749 5753 5756 5759 5762 5765 5767 5769 5771 5773 5774 5775 5775 5776
5580 5585 5591 5597 5602 5608 5614 5621 5626 5629 5632 5638 5647 5651 5659 5668 5675 5682 5688 5693 5697 5702 5707 5712 5716 5721 5725 5729 5733 5737 5741 5744 5747 5750 5753 5756 5759 5761 5763 5764 5766 5766 5767 5768
5576 5581 5586 5591 5596 5602 5607 5613 5619 5623 5627 5633 5639 5643 5652 5660 5666 5672 5678 5683 5688 5693 5698 5703 5708 5712 5716 5720 5724 5728 5732 5735 5738 5742 5745 5747 5750 5752 5754 5756 5757 5758 5759 5759
5573 5578 5582 5586 5591 5596 5601 5606 5612 5617 5621 5626 5630 5637 5645 5651 5657 5663 5669 5674 5679 5684 5689 5694 5699 5703 5707 5711 5715 5719 5723 5726 5729 5733 5735 5738 5741 5743 5745 5746 5748 5749 5750 5750
5569 5573 5577 5581 5585 5590 5596 5601 5605 5609 5613 5618 5624 5629 5637 5644 5650 5656 5661 5666 5671 5676 5680 5685 5689 5694 5698 5702 5705 5709 5713 5717 5720 5723 5726 5729 5731 5733 5735 5737 5739 5740 5740 5741
5566 5569 5573 5576 5580 5585 5590 5595 5598 5603 5607 5612 5616 5625 5630 5637 5642 5648 5653 5658 5662 5667 5672 5676 5681 5685 5689 5693 5696 5700 5703 5707 5710 5713 5716 5719 5721 5724 5725 5727 5729 5730 5731 5731
5561 5565 5568 5572 5577 5580 5584 5589 5593 5598 5602 5606 5611 5620 5623 5629 5634 5639 5644 5649 5654 5659 5663 5667 5672 5676 5680 5684 5687 5691 5694 5697 5700 5703 5706 5709 5711 5714 5715 5717 5719 5720 5721 5722
5558 5561 5564 5567 5572 5575 5578 5583 5587 5592 5595 5599 5604 5613 5616 5621 5626 5631 5636 5640 5645 5650 5654 5658 5663 5667 5670 5674 5678 5681 5684 5687 5690 5693 5696 5698 5701 5703 5705 5707 5708 5710 5711 5712
5554 5557 5560 5563 5566 5569 5573 5577 5581 5585 5589 5592 5598 5604 5609 5614 5619 5623 5628 5632 5636 5641 5645 5649 5654 5658 5661 5665 5668 5671 5675 5677 5680 5683 5686 5688 5691 5693 5695 5697 5698 5699 5700 5701
5549 5552 5555 5558 5561 5564 5567 5572 5575 5579 5583 5587 5592 5596 5602 5606 5611 5615 5619 5624 5628 5632 5636 5641 5645 5649 5652 5656 5659 5662 5665 5668 5670 5673 5675 5678 5680 5682 5684 5686 5687 5689 5690 5690
5545 5547 5550 5553 5555 5558 5561 5566 5569 5573 5577 5580 5585 5589 5594 5598 5603 5607 5611 5615 5619 5623 5627 5632 5636 5640 5643 5646 5650 5653 5655 5658 5660 5663 5665 5667 5670 5672 5674 5676 5677 5678 5679 5679
5541 5543 5545 5548 5550 5552 5556 5560 5563 5567 5571 5575 5578 5583 5586 5590 5594 5599 5603 5607 5611 5615 5619 5623 5627 5630 5634 5637 5640 5643 5646 5648 5651 5653 5655 5657 5660 5662 5663 5665 5666 5667 5667 5668
5538 5539 5540 5542 5545 5548 5553 5554 5557 5560 5564 5567 5571 5575 5579 5582 5586 5590 5595 5598 5602 5606 5610 5614 5617 5621 5624 5627 5630 5633 5636 5638 5641 5643 5645 5647 5650 5651 5653 5654 5655 5656 5656 5656
5535 5535 5536 5538 5539 5542 5546 5549 5551 5554 5558 5561 5564 5567 5571 5574 5578 5582 5586 5590 5593 5597 5601 5604 5608 5611 5615 5618 5620 5623 5626 5628 5631 5633 5635 5637 5639 5641 5642 5643 5644 5645 5645 5645
5531 5531 5532 5533 5534 5537 5541 5543 5545 5549 5551 5555 5557 5560 5563 5566 5571 5576 5578 5581 5585 5588 5592 5595 5599 5602 5605 5608 5611 5613 5616 5618 5621 5623 5625 5627 5629 5630 5632 5633 5633 5634 5634 5635
5526 5526 5527 5528 5529 5531 5535 5537 5539 5543 5546 5548 5550 5553 5556 5559 5563 5567 5569 5573 5576 5580 5583 5587 5590 5593 5596 5598 5601 5604 5606 5608 5611 5613 5614 5616 5618 5619 5621 5622 5623 5623 5623 5624
5522 5522 5522 5523 5524 5529 5529 5530 5533 5536 5538 5540 5542 5545 5548 5551 5554 5557 5561 5564 5567 5570 5574 5578 5581 5584 5586 5589 5592 5594 5596 5599 5601 5603 5605 5606 5607 5609 5610 5611 5612 5612 5613 5613
5517 5518 5517 5519 5521 5521 5522 5524 5526 5528 5530 5532 5534 5537 5540 5543 5546 5549 5552 5555 5559 5562 5565 5568 5572 5575 5577 5580 5582 5584 5587 5589 5591 5593 5594 5595 5597 5598 5599 5600 5601 5602 5602 5602
5512 5511 5512 5513 5514 5515 5516 5517 5519 5520 5522 5524 5527 5529 5532 5534 5538 5541 5544 5547 5550 5553 5556 5559 5562 5565 5568 5571 5573 5575 5577 5578 5580 5582 5584 5585 5586 5588 5589 5590 5591 5591 5591 5591
5506 5505 5505 5506 5508 5509 5510 5511 5512 5514 5515 5517 5519 5521 5524 5526 5529 5532 5535 5539 5542 5545 5548 5551 5554 5556 5559 5561 5563 5565 5567 5569 5570 5572 5573 5575 5576 5577 5578 5579 5580 5580 5581 5580
5500 5499 5499 5500 5501 5502 5503 5504 5505 5507 5508 5510 5512 5514 5516 5518 5521 5524 5527 5530 5533 5536 5539 5542 5544 5547 5550 5552 5554 5556 5558 5559 5561 5562 5564 5565 5566 5567 5568 5569 5569 5569 5570 5570